Andrews Air Force Base, MD

2:43 AM EST on February 06, 2016 (GMT -0500)
Andrews Air Force Base-Naf

Weather History for KADW - May, 2013

Change the Weather History Date:

Tuesday, May 14, 2013

  Actual Average Record
Temperature  
Mean Temperature 49 °F -  
Max Temperature 64 °F 71 °F 87 °F (2004)
Min Temperature 35 °F 51 °F 35 °F (2013)
Degree Days  
Heating Degree Days 16    
Moisture  
Dew Point 32 °F    
Average Humidity 51    
Maximum Humidity 89    
Minimum Humidity 27    
Precipitation  
Precipitation 0.00 in - - ()
Sea Level Pressure  
Sea Level Pressure 30.17 in    
Wind  
Wind Speed 3 mph (WNW)    
Max Wind Speed 15 mph    
Max Gust Speed 20 mph    
Visibility 10 miles    
Events      
Averages and records for this station are not official NWS values.
T = Trace of Precipitation, MM = Missing Value Source: NWS Daily Summary

Daily Weather History Graph

Daily Weather History Graph

Search for Another Location

Airport or City:

Trip Planner

Search our weather history database for the weather conditions in past years. The results will help you decide how hot, cold, wet, or windy it might be!

Date:

Astronomy

May. 14, 2013 Rise Set
Actual Time 5:55 AM EDT 8:12 PM EDT
Civil Twilight 5:25 AM EDT 8:42 PM EDT
Nautical Twilight 4:49 AM EDT 9:19 PM EDT
Astronomical Twilight 4:09 AM EDT 9:59 PM EDT
Moon 9:33 AM EDT (5/14) 11:58 PM EDT (5/14)
Length of Visible Light 15h 16m
Length of Day
14h 16m
Waxing Crescent, 19% of the Moon is Illuminated
May 14
Waxing Crescent
May 18
First Quarter
May 25
Full
May 31
Last Quarter
Jun 8
New

Hourly Weather History & Observations

Time (EDT) Temp. Windchill Dew Point Humidity Pressure Visibility Wind Dir Wind Speed Gust Speed Precip Events Conditions
12:58 AM 41.7 °F - 30.9 °F 66% 30.19 in 10.0 mi Calm Calm - N/A   Clear
1:58 AM 41.7 °F - 29.1 °F 61% 30.21 in 10.0 mi West 2.3 mph - N/A   Clear
2:58 AM 39.2 °F - 30.9 °F 72% 30.19 in 10.0 mi Calm Calm - N/A   Clear
3:58 AM 37.0 °F - 32.2 °F 83% 30.21 in 10.0 mi West 2.3 mph - N/A   Clear
4:58 AM 36.7 °F - 32.2 °F 84% 30.21 in 10.0 mi SSW 1.2 mph - N/A   Clear
5:58 AM 35.1 °F - 32.2 °F 89% 30.22 in 10.0 mi WNW 1.2 mph - N/A   Clear
6:58 AM 38.7 °F - 34.7 °F 86% 30.24 in 10.0 mi North 1.2 mph - N/A   Clear
7:58 AM 46.4 °F 43.5 °F 31.8 °F 57% 30.24 in 10.0 mi North 5.8 mph - N/A   Clear
8:58 AM 49.8 °F - 26.1 °F 40% 30.24 in 10.0 mi North 5.8 mph - N/A   Clear
9:58 AM 52.2 °F - 27.1 °F 38% 30.24 in 10.0 mi WNW 4.6 mph - N/A   Partly Cloudy
10:58 AM 54.9 °F - 26.4 °F 33% 30.22 in 10.0 mi Variable 6.9 mph - N/A   Scattered Clouds
11:27 AM 57.2 °F - 26.6 °F 31% 30.19 in 10.0 mi WNW 15.0 mph 19.6 mph N/A   Partly Cloudy
11:58 AM 57.6 °F - 27.9 °F 32% 30.20 in 10.0 mi WNW 11.5 mph 18.4 mph N/A   Partly Cloudy
12:58 PM 58.8 °F - 27.7 °F 31% 30.19 in 10.0 mi Variable 6.9 mph 17.3 mph N/A   Clear
1:58 PM 60.1 °F - 29.3 °F 31% 30.17 in 10.0 mi Variable 2.3 mph - N/A   Clear
2:58 PM 61.9 °F - 28.9 °F 29% 30.14 in 10.0 mi Calm Calm - N/A   Clear
3:58 PM 63.5 °F - 28.4 °F 27% 30.14 in 10.0 mi West 5.8 mph - N/A   Scattered Clouds
4:58 PM 62.4 °F - 30.9 °F 31% 30.12 in 10.0 mi WNW 8.1 mph - N/A   Mostly Cloudy
5:58 PM 61.9 °F - 31.5 °F 32% 30.11 in 10.0 mi Calm Calm - N/A   Mostly Cloudy
6:58 PM 61.0 °F - 32.5 °F 34% 30.11 in 10.0 mi ESE 1.2 mph - N/A   Mostly Cloudy
7:58 PM 57.7 °F - 41.0 °F 54% 30.09 in 10.0 mi East 4.6 mph - N/A   Scattered Clouds
8:58 PM 56.3 °F - 40.3 °F 55% 30.09 in 10.0 mi ESE 5.8 mph - N/A   Overcast
9:58 PM 55.2 °F - 41.9 °F 61% 30.10 in 10.0 mi ESE 5.8 mph - N/A   Overcast
10:58 PM 55.4 °F - 41.9 °F 60% 30.09 in 10.0 mi SE 5.8 mph - N/A   Overcast
11:58 PM 54.5 °F - 42.6 °F 64% 30.08 in 10.0 mi SE 5.8 mph - N/A   Overcast